| time (UTC) | temp F | wind direction | speed MPH | gust MPH | rain 1hr in | rain 24hr in | rain mn in | humidity % | barometer mb |
| 20260831214514 | 73 | 82 | 0.0 | 0.0 | 0.00 | 0.00 | 0.00 | 13 | 1018.4 |
| 20260831213010 | 73 | 82 | 0.0 | 0.0 | 0.00 | 0.00 | 0.00 | 11 | 1018.3 |
| 20260831211510 | 73 | 82 | 0.0 | 0.0 | 0.00 | 0.00 | 0.00 | 21 | 1018.4 |
| 20260831210001 | 73 | 82 | 0.0 | 0.0 | 0.00 | 0.00 | 0.00 | 21 | 1018.3 |
| 20260831204557 | 73 | 82 | 0.0 | 0.0 | 0.00 | 0.00 | 0.00 | 24 | 1018.3 |
| 20260831203053 | 74 | 82 | 0.0 | 1.0 | 0.00 | 0.00 | 0.00 | 29 | 1018.3 |
| 20260831201548 | 74 | 82 | 0.0 | 2.0 | 0.00 | 0.00 | 0.00 | 31 | 1018.4 |
| 20260831200044 | 74 | 132 | 0.0 | 2.0 | 0.00 | 0.00 | 0.00 | 37 | 1018.3 |
| 20260831194556 | 75 | 129 | 0.0 | 0.0 | 0.00 | 0.00 | 0.00 | 30 | 1018.4 |
| 20260831193034 | 75 | 129 | 0.0 | 0.0 | 0.00 | 0.00 | 0.00 | 32 | 1018.5 |
| 20260831191530 | 74 | 129 | 0.0 | 0.0 | 0.00 | 0.00 | 0.00 | 33 | 1018.8 |
| 20260831190026 | 74 | 129 | 0.0 | 1.0 | 0.00 | 0.00 | 0.00 | 41 | 1018.9 |
| 20260831184521 | 74 | 129 | 0.0 | 1.0 | 0.00 | 0.00 | 0.00 | 46 | 1019.2 |
| 20260831183017 | 75 | 129 | 0.0 | 3.0 | 0.00 | 0.00 | 0.00 | 47 | 1019.1 |
| 20260831181513 | 75 | 173 | 0.0 | 6.0 | 0.00 | 0.00 | 0.00 | 52 | 1019.1 |
| 20260831180011 | 76 | 182 | 0.0 | 2.0 | 0.00 | 0.00 | 0.00 | 50 | 1019.4 |
| 20260831174505 | 75 | 168 | 1.0 | 7.0 | 0.00 | 0.00 | 0.00 | 53 | 1019.3 |
| 20260831173104 | 75 | 199 | 1.0 | 5.0 | 0.00 | 0.00 | 0.00 | 51 | 1019.5 |
| 20260831171558 | 75 | 163 | 0.0 | 4.0 | 0.00 | 0.00 | 0.00 | 43 | 1019.7 |
| 20260831170052 | 74 | 164 | 0.0 | 3.0 | 0.00 | 0.00 | 0.00 | 42 | 1019.8 |
| 20260831164547 | 75 | 135 | 0.0 | 3.0 | 0.00 | 0.00 | 0.00 | 47 | 1020.3 |
| 20260831163042 | 74 | 138 | 0.0 | 4.0 | 0.00 | 0.00 | 0.00 | 48 | 1020.1 |
| 20260831161538 | 74 | 113 | 0.0 | 4.0 | 0.00 | 0.00 | 0.00 | 45 | 1020.3 |
| 20260831160039 | 74 | 49 | 0.0 | 1.0 | 0.00 | 0.00 | 0.00 | 37 | 1020.6 |
| 20260831154529 | 74 | 49 | 0.0 | 3.0 | 0.00 | 0.00 | 0.00 | 44 | 1020.5 |
| 20260831153025 | 74 | 173 | 0.0 | 4.0 | 0.00 | 0.00 | 0.00 | 45 | 1020.7 |
| 20260831151521 | 74 | 167 | 0.0 | 3.0 | 0.00 | 0.00 | 0.00 | 37 | 1020.6 |
| 20260831150016 | 73 | 11 | 0.0 | 0.0 | 0.00 | 0.00 | 0.00 | 32 | 1020.7 |
| 20260831144511 | 72 | 11 | 0.0 | 1.0 | 0.00 | 0.00 | 0.00 | 30 | 1020.8 |
| 20260831143007 | 72 | 11 | 0.0 | 1.0 | 0.00 | 0.00 | 0.00 | 26 | 1020.8 |
| 20260831141503 | 72 | 11 | 0.0 | 1.0 | 0.00 | 0.00 | 0.00 | 29 | 1020.7 |
| 20260831140058 | 72 | 11 | 0.0 | 1.0 | 0.00 | 0.00 | 0.00 | 20 | 1020.8 |
| 20260831134554 | 71 | 11 | 0.0 | 0.0 | 0.00 | 0.00 | 0.00 | 11 | 1020.7 |
| 20260831133049 | 71 | 11 | 0.0 | 0.0 | 0.00 | 0.00 | 0.00 | 5 | 1020.8 |
| 20260831131550 | 70 | 11 | 0.0 | 0.0 | 0.00 | 0.00 | 0.00 | 100 | 1020.8 |
| 20260831130041 | 69 | 10 | 0.0 | 2.0 | 0.00 | 0.00 | 0.00 | 100 | 1020.9 |
| 20260831124537 | 68 | 13 | 0.0 | 0.0 | 0.00 | 0.00 | 0.00 | 100 | 1020.9 |
| 20260831123032 | 67 | 13 | 0.0 | 0.0 | 0.00 | 0.00 | 0.00 | 100 | 1020.9 |
| 20260831121530 | 66 | 13 | 0.0 | 0.0 | 0.00 | 0.00 | 0.00 | 100 | 1021.2 |
| 20260831120023 | 66 | 13 | 0.0 | 0.0 | 0.00 | 0.00 | 0.00 | 100 | 1021.0 |
| 20260831114519 | 65 | 13 | 0.0 | 0.0 | 0.00 | 0.00 | 0.00 | 100 | 1020.9 |
| 20260831113021 | 0 | 0.0 | 0.0 | 0.00 | 0.00 | 0.00 | 1020.8 | ||
| 20260831111512 | 0 | 0.0 | 0.0 | 0.00 | 0.00 | 0.00 | 1020.7 | ||
| 20260831110006 | 0 | 0.0 | 0.0 | 0.00 | 0.00 | 0.00 | 1020.5 | ||
| 20260831104509 | 0 | 0.0 | 0.0 | 0.00 | 0.00 | 0.00 | 1020.1 | ||
| 20260831103057 | 0 | 0.0 | 0.0 | 0.00 | 0.00 | 0.00 | 1019.8 | ||
| 20260831101552 | 0 | 0.0 | 0.0 | 0.00 | 0.00 | 0.00 | 1019.8 | ||
| 20260831100048 | 0 | 0.0 | 0.0 | 0.00 | 0.00 | 0.00 | 1019.8 | ||
| 20260831094543 | 63 | 13 | 0.0 | 0.0 | 0.00 | 0.00 | 0.00 | 100 | 1019.8 |
| 20260831093038 | 64 | 13 | 0.0 | 0.0 | 0.00 | 0.00 | 0.00 | 100 | 1019.7 |
| 20260831091534 | 64 | 13 | 0.0 | 0.0 | 0.00 | 0.00 | 0.00 | 100 | 1019.7 |
| 20260831090033 | 64 | 13 | 0.0 | 0.0 | 0.00 | 0.00 | 0.00 | 100 | 1019.9 |
| 20260831084525 | 65 | 13 | 0.0 | 0.0 | 0.00 | 0.00 | 0.00 | 100 | 1019.8 |
| 20260831083035 | 65 | 13 | 0.0 | 0.0 | 0.00 | 0.00 | 0.00 | 100 | 1019.8 |
| 20260831081516 | 65 | 13 | 0.0 | 0.0 | 0.00 | 0.00 | 0.00 | 100 | 1020.0 |
| 20260831080011 | 65 | 13 | 0.0 | 1.0 | 0.00 | 0.00 | 0.00 | 100 | 1019.8 |
| 20260831074508 | 65 | 13 | 0.0 | 0.0 | 0.00 | 0.00 | 0.00 | 100 | 1019.6 |
| 20260831073009 | 66 | 13 | 0.0 | 0.0 | 0.00 | 0.00 | 0.00 | 100 | 1019.5 |
| 20260831071559 | 67 | 13 | 0.0 | 0.0 | 0.00 | 0.00 | 0.00 | 100 | 1019.4 |
| 20260831070055 | 68 | 13 | 0.0 | 0.0 | 0.00 | 0.00 | 0.00 | 100 | 1019.7 |
| 20260831064550 | 68 | 13 | 0.0 | 0.0 | 0.00 | 0.00 | 0.00 | 2 | 1019.7 |
| 20260831063045 | 68 | 13 | 0.0 | 1.0 | 0.00 | 0.00 | 0.00 | 5 | 1019.5 |
| 20260831061540 | 68 | 13 | 0.0 | 0.0 | 0.00 | 0.00 | 0.00 | 3 | 1019.6 |
| 20260831060037 | 68 | 13 | 0.0 | 2.0 | 0.00 | 0.00 | 0.00 | 1 | 1019.5 |
| 20260831054537 | 67 | 13 | 0.0 | 2.0 | 0.00 | 0.00 | 0.00 | 100 | 1019.6 |
| 20260831053030 | 67 | 13 | 0.0 | 1.0 | 0.00 | 0.00 | 0.00 | 4 | 1019.5 |
| 20260831051527 | 68 | 13 | 0.0 | 4.0 | 0.00 | 0.00 | 0.00 | 5 | 1019.5 |
| 20260831050022 | 68 | 12 | 1.0 | 5.0 | 0.00 | 0.00 | 0.00 | 3 | 1019.4 |
| 20260831044515 | 67 | 38 | 0.0 | 4.0 | 0.00 | 0.00 | 0.00 | 1 | 1019.1 |
| 20260831043010 | 67 | 31 | 0.0 | 1.0 | 0.00 | 0.00 | 0.00 | 2 | 1019.1 |
| 20260831041508 | 67 | 19 | 0.0 | 2.0 | 0.00 | 0.00 | 0.00 | 3 | 1019.1 |
| 20260831040002 | 68 | 19 | 0.0 | 1.0 | 0.00 | 0.00 | 0.00 | 6 | 1019.2 |
| 20260831034600 | 68 | 19 | 0.0 | 1.0 | 0.00 | 0.00 | 0.00 | 9 | 1019.3 |
| 20260831033053 | 68 | 286 | 0.0 | 3.0 | 0.00 | 0.00 | 0.00 | 8 | 1019.3 |
| 20260831031549 | 68 | 42 | 0.0 | 6.0 | 0.00 | 0.00 | 0.00 | 9 | 1019.5 |
| 20260831030053 | 69 | 13 | 0.0 | 3.0 | 0.00 | 0.00 | 0.00 | 9 | 1019.3 |
| 20260831024556 | 69 | 289 | 0.0 | 3.0 | 0.00 | 0.00 | 0.00 | 10 | 1019.1 |
| 20260831023035 | 69 | 339 | 0.0 | 2.0 | 0.00 | 0.00 | 0.00 | 9 | 1019.3 |
| 20260831021539 | 69 | 26 | 0.0 | 1.0 | 0.00 | 0.00 | 0.00 | 10 | 1019.3 |
| 20260831020029 | 69 | 26 | 0.0 | 3.0 | 0.00 | 0.00 | 0.00 | 15 | 1019.4 |
| 20260831014523 | 69 | 21 | 0.0 | 2.0 | 0.00 | 0.00 | 0.00 | 16 | 1019.5 |
| 20260831013018 | 69 | 39 | 0.0 | 5.0 | 0.00 | 0.00 | 0.00 | 13 | 1019.4 |
| 20260831011528 | 69 | 24 | 0.0 | 3.0 | 0.00 | 0.00 | 0.00 | 3 | 1019.2 |
| 20260831010009 | 69 | 17 | 0.0 | 1.0 | 0.00 | 0.00 | 0.00 | 100 | 1018.8 |
| 20260831004505 | 69 | 17 | 0.0 | 2.0 | 0.00 | 0.00 | 0.00 | 100 | 1018.7 |
| 20260831003101 | 69 | 19 | 0.0 | 0.0 | 0.00 | 0.00 | 0.00 | 2 | 1018.4 |
| 20260831001605 | 69 | 19 | 0.0 | 0.0 | 0.00 | 0.00 | 0.00 | 5 | 1018.1 |
| 20260831000110 | 69 | 19 | 0.0 | 0.0 | 0.00 | 0.00 | 0.00 | 7 | 1017.9 |
| 20260830234548 | 69 | 19 | 0.0 | 5.0 | 0.00 | 0.00 | 0.00 | 7 | 1017.8 |
| 20260830233043 | 69 | 55 | 0.0 | 0.0 | 0.00 | 0.00 | 0.00 | 9 | 1017.7 |
| 20260830231542 | 70 | 55 | 0.0 | 0.0 | 0.00 | 0.00 | 0.00 | 14 | 1017.8 |
| 20260830230045 | 70 | 55 | 0.0 | 1.0 | 0.00 | 0.00 | 0.00 | 20 | 1017.8 |
| 20260830224530 | 71 | 55 | 0.0 | 1.0 | 0.00 | 0.00 | 0.00 | 22 | 1018.1 |
| 20260830223025 | 71 | 45 | 1.0 | 7.0 | 0.00 | 0.00 | 0.00 | 23 | 1018.1 |
| 20260830221521 | 73 | 159 | 0.0 | 0.0 | 0.00 | 0.00 | 0.00 | 100 | 1017.8 |
| 20260830220018 | 73 | 159 | 0.0 | 0.0 | 0.00 | 0.00 | 0.00 | 100 | 1017.6 |